Back to catalog

STARLINK-4797

AliveCommunicationsVLEO
NORAD 53852·PAYLOAD·🇺🇸 United States

Launched Sep 19, 2022 from Cape Canaveral Space Force Station

Loading…

Next Passes (next 24 hours)

TLE

FreshSource: CelesTrak SupGP

Epoch: Sep 14, 2026, 22:06 UTC

1 53852C 22114AL  26257.92131944 -.00025863  00000+0 -83175-3 0  2577
2 53852  53.1592 149.9972 0001546  86.5100  65.0134 15.31711794    16

Track STARLINK-4797 in real time with AllMySat

Download on the App Store